CW4525 Weather Reports


Display with metric or nautical units.
time (UTC)temp
F
wind
direction
speed
MPH
gust
MPH
rain 1hr
in
rain 24hr
in
rain mn
in
humidity
%
barometer
mb
20260902083035 60 360 0.0 0.0 0.00 0.41 0.00 95 1016.9
20260902081539 60 53 0.0 0.0 0.00 0.41 0.00 95 1016.9
20260902080039 60 115 0.0 0.0 0.00 0.41 0.00 95 1017.0
20260902074526 60 115 0.0 0.0 0.00 0.41 0.00 95 1017.2
20260902073030 60 115 0.0 0.0 0.00 0.41 0.00 95 1017.3
20260902071525 60 115 0.0 0.0 0.00 0.41 0.00 95 1017.3
20260902070025 60 115 0.0 0.0 0.00 0.41 0.00 95 1017.1
20260902064523 60 115 0.0 0.0 0.00 0.41 0.00 95 1017.0
20260902063022 60 115 0.0 0.0 0.00 0.41 0.00 95 1016.9
20260902061521 60 115 0.0 0.0 0.00 0.41 0.00 95 1016.9
20260902060021 60 115 0.0 0.0 0.00 0.41 0.00 95 1016.8
20260902054529 60 115 0.0 0.0 0.00 0.41 0.00 95 1016.8
20260902053019 60 115 0.0 0.0 0.00 0.41 0.00 95 1016.8
20260902051523 60 115 0.0 0.0 0.00 0.41 0.00 95 1016.7
20260902050018 60 115 0.0 0.0 0.00 0.41 0.00 95 1016.4
20260902044517 60 115 0.0 0.0 0.00 0.41 0.00 95 1016.2
20260902043016 60 115 0.0 0.0 0.00 0.41 0.00 95 1015.8
20260902041515 60 115 0.0 0.0 0.00 0.41 0.00 95 1015.7
20260902040016 60 115 0.0 0.0 0.00 0.41 0.41 95 1015.7
20260902034514 60 115 0.0 0.0 0.00 0.41 0.41 95 1015.4
20260902033013 60 115 0.0 0.0 0.00 0.41 0.41 95 1015.2
20260902031513 60 115 0.0 0.0 0.00 0.41 0.41 95 1015.2
20260902030017 60 115 0.0 0.0 0.00 0.41 0.41 95 1015.3
20260902024512 60 115 0.0 0.0 0.00 0.41 0.41 95 1015.5
20260902023032 60 115 0.0 0.0 0.00 0.41 0.41 95 1015.3
20260902021525 60 115 0.0 0.0 0.01 0.41 0.41 95 1015.3
20260902020010 60 115 0.0 0.0 0.01 0.41 0.41 95 1015.6
20260902014510 60 115 0.0 0.0 0.01 0.41 0.41 95 1015.6
20260902013008 60 115 0.0 0.0 0.01 0.41 0.41 94 1015.2
20260902011512 60 115 0.0 0.0 0.00 0.40 0.40 94 1015.2
20260902010007 60 115 0.0 0.0 0.00 0.40 0.40 94 1015.2
20260902004507 60 115 0.0 0.0 0.00 0.40 0.40 94 1015.2
20260902003006 60 115 0.0 0.0 0.00 0.40 0.40 94 1015.1
20260902001506 60 115 0.0 0.0 0.00 0.40 0.40 94 1015.0
20260902000008 60 140 0.0 5.0 0.00 0.40 0.40 94 1014.7
20260901234504 60 130 0.0 0.0 0.00 0.40 0.40 94 1014.6
20260901233004 61 136 1.0 6.0 0.00 0.40 0.40 93 1014.6
20260901231502 61 123 1.0 6.0 0.01 0.40 0.40 93 1015.0
20260901230002 62 148 2.0 8.0 0.01 0.40 0.40 93 1014.7
20260901224503 62 126 3.0 7.0 0.01 0.40 0.40 94 1014.6
20260901223115 63 113 1.0 5.0 0.01 0.40 0.40 94 1014.5
20260901221607 63 147 2.0 10.0 0.00 0.39 0.39 93 1014.4
20260901221502 63 123 4.0 13.0 0.00 0.39 0.39 93 1014.4
20260901220130 64 134 0.0 8.0 0.00 0.39 0.39 94 1014.3
20260901214559 64 92 0.0 4.0 0.00 0.39 0.39 94 1014.1
20260901213117 64 99 0.0 4.0 0.00 0.39 0.39 94 1014.0
20260901211602 64 94 0.0 4.0 0.00 0.39 0.39 94 1014.0
20260901204608 64 123 1.0 7.0 0.00 0.39 0.39 94 1013.8
20260901203108 64 113 0.0 0.0 0.00 0.39 0.39 94 1013.7
20260901201557 64 115 0.0 0.0 0.00 0.39 0.39 94 1013.7
20260901200057 64 34 0.0 0.0 0.00 0.39 0.39 94 1013.5
20260901194554 64 35 0.0 0.0 0.00 0.39 0.39 94 1013.7
20260901193106 63 35 0.0 0.0 0.00 0.39 0.39 94 1013.7
20260901191553 63 36 0.0 0.0 0.00 0.39 0.39 94 1013.8
20260901190054 63 36 0.0 0.0 0.00 0.39 0.39 94 1013.8
20260901184552 62 36 0.0 0.0 0.00 0.39 0.39 94 1013.8
20260901183058 62 34 0.0 0.0 0.00 0.39 0.39 94 1013.9
20260901181552 62 45 0.0 0.0 0.00 0.39 0.39 94 1013.7
20260901180050 62 16 0.0 0.0 0.00 0.39 0.39 94 1013.7
20260901174549 61 30 0.0 0.0 0.00 0.39 0.39 94 1013.8
20260901173058 62 96 0.0 1.0 0.01 0.39 0.39 94 1013.3
20260901171548 61 13 1.0 6.0 0.01 0.39 0.39 94 1013.3
20260901170100 60 84 1.0 4.0 0.01 0.39 0.39 93 1013.3
20260901164545 60 19 0.0 7.0 0.00 0.38 0.38 94 1013.7
20260901163044 60 32 0.0 5.0 0.00 0.38 0.38 94 1013.7
20260901161543 60 90 1.0 4.0 0.00 0.38 0.38 94 1013.7
20260901160042 60 27 3.0 7.0 0.00 0.38 0.38 93 1013.9
20260901154541 60 349 1.0 7.0 0.00 0.38 0.38 93 1013.9
20260901153041 60 47 2.0 6.0 0.00 0.38 0.38 93 1013.4
20260901151540 60 15 1.0 6.0 0.01 0.38 0.38 93 1013.5
20260901150037 60 40 2.0 7.0 0.01 0.38 0.38 93 1013.4
20260901144537 61 38 2.0 7.0 0.02 0.38 0.38 94 1013.7
20260901143043 61 360 1.0 5.0 0.03 0.38 0.38 94 1013.4
20260901141540 61 17 3.0 5.0 0.04 0.37 0.37 94 1013.4
20260901140050 61 113 0.0 1.0 0.07 0.37 0.37 94 1013.4
20260901134538 61 114 0.0 2.0 0.10 0.36 0.36 94 1013.3
20260901133033 60 5 0.0 0.0 0.11 0.35 0.35 94 1013.3
20260901131533 60 5 0.0 0.0 0.17 0.33 0.33 93 1013.7
20260901130036 60 5 0.0 4.0 0.20 0.30 0.30 92 1014.0
20260901124523 60 338 2.0 8.0 0.24 0.26 0.26 92 1014.1
20260901123023 61 18 2.0 8.0 0.24 0.24 0.24 91 1014.3
20260901121519 61 329 0.0 1.0 0.16 0.16 0.16 90 1014.2
20260901120030 61 329 0.0 2.0 0.10 0.10 0.10 90 1014.4
20260901114516 62 329 0.0 1.0 0.01 0.01 0.01 88 1014.0
20260901113017 62 329 0.0 2.0 0.00 0.00 0.00 87 1013.9
20260901111516 62 329 0.0 1.0 0.00 0.00 0.00 87 1013.8
20260901110014 62 329 1.0 5.0 0.00 0.00 0.00 88 1013.6
20260901104512 62 29 0.0 5.0 0.00 0.00 0.00 89 1013.6
20260901103013 62 347 3.0 6.0 0.00 0.00 0.00 89 1013.3
20260901101512 62 320 0.0 0.0 0.00 0.00 0.00 89 1013.2
20260901100010 62 319 0.0 0.0 0.00 0.00 0.00 89 1013.0
20260901094513 62 319 0.0 0.0 0.00 0.00 0.00 89 1012.9
20260901093008 63 319 0.0 1.0 0.00 0.00 0.00 89 1012.9
20260901091507 63 319 0.0 0.0 0.00 0.00 0.00 89 1012.9
20260901090010 63 319 0.0 4.0 0.00 0.00 0.00 88 1012.9
20260901084504 63 319 0.0 1.0 0.00 0.00 0.00 88 1012.8